Location: Invercargill
(46.4000°S, 168.3500°E)
Time: 19:29:25
(UTC+12:00)

CENTAUR R/B - Pass Details

Date: 14 May 2021
Orbit: 742 x 1446 km, 63.4° (Epoch: 09 June)

Event Time Altitude Azimuth Distance (km) Brightness Sun altitude
Rises 19:49:29 0° 268° (W) 4,183 7.2 -24.8°
Reaches altitude 10° 19:53:10 10° 254° (WSW) 3,094 6.1 -25.4°
Maximum altitude 19:58:46 23° 203° (SSW) 2,090 4.4 -26.4°
Enters shadow 20:02:06 16° 165° (SSE) 2,350 4.3 -27.0°
